Location: Unspecified
(52.4292°N, 19.3359°E)
Time: 23:33:47
(UTC+02:00)

Altair - Pass Details

Date: 27 May 2024
Orbit: 1502 x 1682 km, 47.2° (Epoch: 19 June)

Event Time Altitude Azimuth Distance (km) Brightness Sun altitude
Rises 12:12:26 0° 260° (W) 4,843 10.1 58.5°
Reaches altitude 10° 12:15:32 10° 258° (WSW) 3,878 9.8 58.6°
Maximum altitude 12:25:22 67° 179° (S) 1,792 10.6 58.9°
Drops below altitude 10° 12:35:24 10° 100° (E) 3,945 9.9 59.0°
Sets 12:38:35 0° 98° (E) 4,931 10.2 59.0°
